Location: Newark
(54.4000°N, 32.4500°E)
Time: 15:16:14
(UTC+00:00)

Envisat - Pass Details

Date: 25 January 2020
Orbit: 764 x 766 km, 98.1° (Epoch: 17 February)

Event Time Altitude Azimuth Distance (km) Brightness Sun altitude
Rises 02:49:38 0° 29° (NNE) 3,246 6.7 -26.0°
Reaches altitude 10° 02:54:03 10° 66° (ENE) 2,311 6.4 -25.3°
Maximum altitude 02:55:23 11° 81° (E) 2,244 6.4 -25.1°
Drops below altitude 10° 02:56:42 10° 96° (E) 2,306 6.5 -24.9°
Sets 03:01:04 0° 132° (SE) 3,224 6.9 -24.3°
